DW0427 Weather Reports


Display with metric or nautical units.
time (UTC)temp
F
wind
direction
speed
MPH
gust
MPH
rain 1hr
in
rain 24hr
in
rain mn
in
humidity
%
barometer
mb
20201029102949 57 355 17.0 29.0 0.00 0.23 0.20 88 1000.2
20201029102739 57 351 18.0 29.0 0.00 0.23 0.20 87 1000.2
20201029102539 57 347 18.0 29.0 0.00 0.23 0.20 87 1000.3
20201029102339 57 348 18.0 31.0 0.00 0.23 0.20 87 1000.2
20201029102141 57 343 19.0 34.0 0.00 0.23 0.20 87 1000.1
20201029101942 57 342 19.0 41.0 0.00 0.23 0.20 87 1000.1
20201029101543 57 350 18.0 41.0 0.00 0.23 0.20 87 999.9
20201029101345 57 350 18.0 41.0 0.00 0.23 0.20 87 999.9
20201029101139 57 350 18.0 41.0 0.00 0.23 0.20 87 1000.0
20201029100940 57 347 17.0 34.0 0.00 0.23 0.20 87 1000.0
20201029100744 57 345 17.0 34.0 0.00 0.23 0.20 88 1000.1
20201029100543 57 336 17.0 34.0 0.00 0.23 0.20 88 999.9
20201029100344 57 329 16.0 34.0 0.00 0.23 0.20 88 999.9
20201029100219 57 320 16.0 34.0 0.00 0.23 0.20 88 999.9
20201029095954 57 312 16.0 27.0 0.00 0.23 0.20 88 999.8
20201029095741 57 297 16.0 27.0 0.00 0.23 0.20 88 999.8
20201029095547 57 274 16.0 31.0 0.00 0.23 0.20 88 999.8
20201029095341 57 258 15.0 31.0 0.00 0.23 0.20 88 999.9
20201029095140 57 261 15.0 31.0 0.00 0.23 0.20 88 999.9
20201029094943 57 265 14.0 31.0 0.00 0.23 0.20 88 999.7
20201029094740 57 257 13.0 31.0 0.00 0.23 0.20 89 999.7
20201029094542 56 267 13.0 28.0 0.00 0.23 0.20 89 999.9
20201029094339 56 280 13.0 26.0 0.00 0.23 0.20 89 1000.0
20201029094140 56 277 13.0 26.0 0.00 0.23 0.20 89 999.9
20201029093938 56 275 13.0 24.0 0.00 0.23 0.20 89 999.9
20201029093738 56 281 13.0 23.0 0.00 0.23 0.20 89 999.9
20201029093542 56 264 13.0 31.0 0.00 0.23 0.20 90 999.7
20201029093340 56 255 13.0 31.0 0.00 0.23 0.20 90 999.8
20201029093140 56 244 13.0 31.0 0.00 0.23 0.20 90 999.8
20201029092942 56 240 12.0 31.0 0.01 0.23 0.20 90 999.8
20201029092739 56 238 12.0 31.0 0.01 0.23 0.20 90 1000.0
20201029092540 56 238 11.0 24.0 0.01 0.23 0.20 90 999.9
20201029092340 56 246 12.0 24.0 0.01 0.23 0.20 90 1000.1
20201029091946 56 258 12.0 24.0 0.02 0.23 0.20 90 1000.3
20201029091739 56 262 13.0 22.0 0.02 0.23 0.20 91 1000.0
20201029091538 56 291 13.0 29.0 0.02 0.23 0.20 91 1000.2
20201029091339 56 295 12.0 29.0 0.02 0.23 0.20 91 1000.1
20201029091139 56 291 12.0 29.0 0.02 0.23 0.20 91 1000.2
20201029090939 56 295 12.0 29.0 0.02 0.23 0.20 91 1000.1
20201029090741 56 283 12.0 29.0 0.02 0.23 0.20 91 1000.1
20201029090540 55 240 11.0 24.0 0.02 0.23 0.20 92 999.9
20201029090340 55 226 11.0 20.0 0.02 0.23 0.20 92 999.7
20201029090141 55 222 11.0 20.0 0.02 0.23 0.20 92 999.5
20201029085739 55 211 11.0 19.0 0.02 0.23 0.20 92 999.6
20201029085339 55 206 11.0 19.0 0.02 0.23 0.20 92 999.4
20201029085141 55 205 11.0 19.0 0.02 0.23 0.20 92 999.5
20201029084950 55 205 11.0 18.0 0.03 0.23 0.20 92 999.6
20201029084739 55 206 12.0 18.0 0.03 0.23 0.20 92 999.6
20201029084552 55 208 12.0 18.0 0.03 0.23 0.20 92 999.6
20201029084339 55 210 12.0 22.0 0.03 0.23 0.20 92 999.7
20201029084148 55 212 13.0 22.0 0.03 0.23 0.20 92 999.7
20201029083940 55 212 13.0 22.0 0.03 0.23 0.20 92 999.7
20201029083742 55 212 12.0 22.0 0.03 0.23 0.20 92 999.7
20201029083550 55 211 12.0 22.0 0.03 0.23 0.20 92 1000.0
20201029083340 55 209 11.0 22.0 0.03 0.23 0.20 92 1000.0
20201029083141 55 207 11.0 22.0 0.03 0.23 0.20 92 999.8
20201029082947 55 207 11.0 22.0 0.03 0.22 0.20 92 999.9
20201029082742 55 209 11.0 21.0 0.03 0.22 0.20 92 999.9
20201029082540 55 211 11.0 21.0 0.03 0.22 0.20 92 999.9
20201029082344 55 215 11.0 18.0 0.03 0.22 0.20 92 1000.0
20201029082144 55 215 11.0 19.0 0.03 0.22 0.20 92 1000.0
20201029081939 55 215 11.0 19.0 0.02 0.21 0.19 92 1000.6
20201029081739 55 215 12.0 19.0 0.03 0.21 0.19 92 1000.5
20201029081539 55 216 12.0 19.0 0.03 0.21 0.19 92 999.9
20201029081343 55 217 12.0 22.0 0.03 0.21 0.19 92 1000.0
20201029081140 55 221 11.0 22.0 0.02 0.20 0.18 91 1000.0
20201029080941 55 225 11.0 22.0 0.02 0.20 0.18 91 1000.1
20201029080740 55 227 11.0 22.0 0.03 0.20 0.18 91 1000.5
20201029080543 55 228 11.0 22.0 0.03 0.20 0.18 91 1000.5
20201029080340 55 228 10.0 22.0 0.03 0.20 0.18 91 1000.4
20201029080144 55 230 10.0 22.0 0.03 0.20 0.18 92 1000.6
20201029075939 55 228 11.0 21.0 0.03 0.20 0.18 92 1000.4
20201029075742 55 236 11.0 21.0 0.03 0.20 0.18 92 1000.4
20201029075540 55 237 11.0 21.0 0.04 0.20 0.18 92 1000.4
20201029075351 55 256 11.0 17.0 0.04 0.20 0.18 92 1000.3
20201029075140 55 312 11.0 19.0 0.03 0.20 0.17 92 1000.3
20201029074940 55 343 11.0 19.0 0.03 0.20 0.17 92 1000.2
20201029074739 55 324 11.0 19.0 0.03 0.20 0.17 92 1000.2
20201029074543 55 296 11.0 19.0 0.03 0.20 0.17 92 1000.2
20201029074346 55 262 11.0 19.0 0.03 0.20 0.17 92 1000.2
20201029074140 55 227 11.0 19.0 0.03 0.20 0.17 92 1000.1
20201029073940 55 216 11.0 19.0 0.03 0.20 0.17 92 1000.1
20201029073745 55 214 11.0 19.0 0.04 0.20 0.17 92 1000.1
20201029073544 55 215 11.0 17.0 0.04 0.20 0.17 92 1000.1
20201029073339 55 214 11.0 20.0 0.04 0.20 0.17 92 1000.1
20201029073149 55 216 11.0 20.0 0.04 0.20 0.17 92 1000.2
20201029072949 55 215 11.0 20.0 0.03 0.19 0.17 92 1000.2
20201029072742 55 216 11.0 20.0 0.03 0.19 0.17 92 1000.1
20201029072551 54 214 11.0 20.0 0.03 0.19 0.17 92 1000.1
20201029072351 54 214 11.0 19.0 0.04 0.19 0.17 92 1000.1
20201029072149 54 214 11.0 19.0 0.04 0.19 0.17 92 1000.1
20201029071941 54 215 11.0 18.0 0.04 0.19 0.17 92 1000.2
20201029071742 54 214 11.0 20.0 0.03 0.18 0.16 93 1000.2
20201029071607 54 214 11.0 20.0 0.03 0.18 0.16 93 1000.1
20201029071403 54 215 11.0 20.0 0.03 0.18 0.16 93 1000.1
20201029071156 54 214 11.0 20.0 0.03 0.18 0.16 93 1000.2
20201029070944 54 213 11.0 20.0 0.02 0.17 0.15 93 1000.1
20201029070741 54 212 11.0 20.0 0.02 0.17 0.15 93 1000.1
20201029070559 54 212 11.0 20.0 0.02 0.17 0.15 93 1000.1
20201029070341 54 210 11.0 21.0 0.03 0.17 0.15 93 1000.0
20201029070140 54 211 11.0 21.0 0.03 0.17 0.15 93 1000.1
20201029065944 54 212 12.0 21.0 0.03 0.17 0.15 93 1000.1
20201029065741 54 210 12.0 21.0 0.04 0.17 0.15 94 1000.1
20201029065546 54 209 12.0 21.0 0.03 0.17 0.14 94 1000.2
20201029065345 54 209 12.0 22.0 0.04 0.17 0.14 94 1000.0
20201029065142 54 208 12.0 22.0 0.04 0.17 0.14 94 1000.1
20201029064945 54 206 11.0 22.0 0.04 0.17 0.14 94 1000.1
20201029064741 54 207 11.0 22.0 0.05 0.17 0.14 94 1000.1
20201029064542 53 208 11.0 22.0 0.05 0.17 0.14 94 1000.2
20201029064342 53 207 11.0 19.0 0.05 0.17 0.14 95 1000.2
20201029064141 53 204 11.0 19.0 0.05 0.17 0.14 95 1000.2
20201029063945 53 203 11.0 19.0 0.05 0.17 0.14 95 1000.3
20201029063741 53 200 11.0 19.0 0.04 0.16 0.13 95 1000.2
20201029063548 53 197 11.0 17.0 0.05 0.16 0.13 95 1000.3
20201029063341 53 196 11.0 18.0 0.05 0.16 0.13 95 1000.4
20201029063141 53 196 11.0 18.0 0.05 0.16 0.13 95 1000.4
20201029062948 53 193 11.0 18.0 0.05 0.16 0.13 95 1000.3
20201029062742 53 192 11.0 18.0 0.05 0.16 0.13 95 1000.4
20201029062542 53 191 12.0 18.0 0.04 0.15 0.13 95 1000.4
20201029062342 53 189 12.0 18.0 0.04 0.15 0.13 95 1000.4
20201029062140 52 189 12.0 18.0 0.05 0.15 0.13 95 1000.4
20201029061945 52 189 12.0 18.0 0.05 0.15 0.13 95 1000.4
20201029061747 52 188 12.0 17.0 0.05 0.15 0.13 95 1000.5
20201029061548 52 187 12.0 17.0 0.05 0.15 0.13 95 1000.4
20201029061354 52 187 12.0 17.0 0.05 0.15 0.13 95 1000.4
20201029061141 52 186 12.0 18.0 0.05 0.15 0.13 95 1000.4
20201029060940 52 185 12.0 18.0 0.05 0.15 0.13 95 1000.4
20201029060740 52 184 12.0 18.0 0.05 0.15 0.13 95 1000.5
20201029060542 52 183 12.0 18.0 0.04 0.14 0.12 95 1000.4
20201029060342 52 181 12.0 18.0 0.04 0.14 0.12 95 1000.4
20201029060140 52 181 12.0 18.0 0.04 0.14 0.12 95 1000.6
20201029055940 52 179 12.0 19.0 0.05 0.14 0.12 95 1000.6
20201029055543 52 357 12.0 19.0 0.04 0.13 0.11 95 1000.6
20201029055341 52 358 12.0 19.0 0.03 0.13 0.10 95 1000.6
20201029055141 52 1 12.0 19.0 0.03 0.13 0.10 95 1000.7
20201029054946 52 1 12.0 18.0 0.03 0.13 0.10 95 1000.7
20201029054744 51 1 12.0 19.0 0.02 0.12 0.10 95 1000.7
20201029054542 51 1 12.0 19.0 0.02 0.12 0.09 95 1000.7
20201029054342 51 1 12.0 19.0 0.02 0.12 0.09 95 1000.8
20201029054141 51 1 12.0 19.0 0.03 0.12 0.09 95 1000.8
20201029053943 51 1 12.0 19.0 0.03 0.12 0.09 95 1000.7
20201029053744 51 1 12.0 18.0 0.02 0.11 0.09 95 1000.7
20201029053541 51 1 12.0 20.0 0.02 0.11 0.09 95 1000.8
20201029053341 51 1 12.0 20.0 0.02 0.11 0.09 95 1001.0
20201029053207 51 1 11.0 20.0 0.03 0.11 0.09 95 1001.0
20201029052940 51 1 11.0 20.0 0.03 0.11 0.09 95 1000.9
20201029052744 51 1 11.0 20.0 0.03 0.11 0.09 95 1001.1
20201029052542 51 1 10.0 19.0 0.03 0.11 0.09 95 1001.2
20201029052342 51 1 10.0 19.0 0.03 0.11 0.09 95 1001.3
20201029052144 51 1 10.0 19.0 0.02 0.10 0.08 95 1001.4
20201029051948 50 1 11.0 15.0 0.03 0.10 0.08 95 1001.4
20201029051741 50 1 11.0 16.0 0.03 0.10 0.08 95 1001.4
20201029051540 50 1 10.0 21.0 0.03 0.10 0.08 95 1001.4
20201029051341 50 1 10.0 21.0 0.03 0.10 0.08 95 1001.5
20201029051150 50 1 10.0 21.0 0.04 0.10 0.08 95 1001.4
20201029050950 50 1 9.0 21.0 0.04 0.10 0.08 95 1001.4
20201029050741 50 1 9.0 21.0 0.04 0.10 0.08 95 1001.6
20201029050541 50 1 9.0 16.0 0.04 0.10 0.08 95 1001.5
20201029050341 50 1 9.0 16.0 0.04 0.10 0.08 95 1001.6
20201029050146 50 1 9.0 16.0 0.04 0.10 0.08 95 1001.6
20201029045944 50 1 9.0 14.0 0.04 0.09 0.07 95 1001.7
20201029045743 49 1 9.0 18.0 0.04 0.09 0.07 95 1001.7
20201029045543 49 1 9.0 18.0 0.04 0.09 0.07 95 1001.8
20201029045344 49 1 9.0 18.0 0.04 0.09 0.07 95 1001.9
20201029045207 49 1 9.0 18.0 0.04 0.09 0.07 95 1001.9
20201029044944 49 1 10.0 18.0 0.05 0.09 0.07 95 1001.9
20201029044742 49 1 10.0 16.0 0.05 0.09 0.07 95 1001.9
20201029044541 49 1 10.0 16.0 0.05 0.09 0.07 95 1001.8
20201029044348 49 1 11.0 16.0 0.04 0.09 0.06 95 1001.9
20201029044148 49 1 11.0 16.0 0.05 0.09 0.06 95 1001.9
20201029043946 49 1 11.0 15.0 0.05 0.09 0.06 95 1001.8
20201029043741 49 1 11.0 15.0 0.05 0.09 0.06 95 1001.9
20201029043541 48 1 11.0 15.0 0.05 0.09 0.06 95 1002.0
20201029043343 48 1 10.0 15.0 0.05 0.09 0.06 95 1002.1
20201029043143 48 1 10.0 15.0 0.05 0.08 0.06 95 1002.1
20201029042944 48 1 9.0 14.0 0.05 0.08 0.06 95 1002.1
20201029042742 48 1 9.0 14.0 0.05 0.08 0.06 95 1002.1
20201029042551 48 1 9.0 14.0 0.05 0.08 0.06 95 1002.2
20201029042346 48 1 9.0 14.0 0.05 0.08 0.06 95 1002.2
20201029042141 48 1 9.0 14.0 0.05 0.08 0.06 95 1002.3
20201029041952 48 1 9.0 14.0 0.04 0.07 0.05 95 1002.4
20201029041742 48 1 10.0 13.0 0.04 0.07 0.05 95 1002.5
20201029041550 48 1 10.0 13.0 0.04 0.07 0.05 95 1002.6
20201029041341 48 1 10.0 13.0 0.04 0.07 0.05 95 1002.6
20201029041142 48 1 10.0 13.0 0.04 0.06 0.04 95 1002.5
20201029040942 48 1 10.0 14.0 0.04 0.06 0.04 94 1002.7
20201029040741 48 1 10.0 14.0 0.04 0.06 0.04 94 1002.7
20201029040546 48 1 10.0 14.0 0.04 0.06 0.04 94 1002.8
20201029040341 48 1 10.0 14.0 0.04 0.06 0.04 94 1002.9
20201029040141 48 1 10.0 14.0 0.04 0.06 0.04 94 1002.8
20201029035943 47 1 10.0 14.0 0.03 0.06 0.03 94 1002.9
20201029035743 47 1 10.0 14.0 0.03 0.06 0.03 94 1002.9
20201029035542 47 1 10.0 14.0 0.03 0.06 0.03 94 1002.9
20201029035343 47 1 10.0 13.0 0.03 0.06 0.03 94 1002.9
20201029035141 47 1 10.0 13.0 0.03 0.06 0.03 94 1003.2
20201029034943 47 1 10.0 13.0 0.02 0.05 0.02 94 1003.1
20201029034744 47 1 10.0 15.0 0.02 0.05 0.02 94 1003.1
20201029034544 47 1 10.0 15.0 0.02 0.05 0.02 94 1003.2
20201029034342 47 1 10.0 16.0 0.02 0.05 0.02 94 1003.2
20201029034141 47 1 10.0 16.0 0.02 0.04 0.02 94 1003.2
20201029033943 47 1 10.0 16.0 0.02 0.04 0.02 94 1003.2
20201029033741 47 1 10.0 16.0 0.02 0.04 0.02 94 1003.2
20201029033547 47 1 10.0 16.0 0.02 0.04 0.02 94 1003.2
20201029033347 47 1 10.0 16.0 0.02 0.04 0.02 94 1003.2
20201029033142 47 1 9.0 16.0 0.01 0.03 0.01 93 1003.2
20201029032746 47 1 9.0 16.0 0.01 0.03 0.01 93 1003.2
20201029032547 47 1 9.0 13.0 0.01 0.03 0.01 93 1003.3
20201029032343 46 1 9.0 15.0 0.01 0.03 0.01 93 1003.2
20201029032141 46 1 9.0 15.0 0.01 0.03 0.01 93 1003.3
20201029031942 46 1 9.0 15.0 0.01 0.03 0.01 93 1003.4
20201029031743 46 1 9.0 17.0 0.01 0.03 0.01 93 1003.4
20201029031542 46 1 9.0 17.0 0.01 0.03 0.01 93 1003.4
20201029031341 46 1 9.0 17.0 0.01 0.03 0.01 93 1003.4
20201029031152 46 1 10.0 17.0 0.00 0.02 0.00 92 1003.5
20201029030941 46 1 10.0 17.0 0.00 0.02 0.00 92 1003.5
20201029030742 46 1 10.0 17.0 0.00 0.02 0.00 92 1003.4
20201029030548 46 1 11.0 16.0 0.00 0.02 0.00 92 1003.4
20201029030341 46 1 11.0 16.0 0.00 0.02 0.00 92 1003.5
20201029030143 46 1 11.0 16.0 0.00 0.02 0.00 92 1003.5
20201029025944 46 1 11.0 16.0 0.00 0.02 0.00 92 1003.4
20201029025742 46 1 10.0 16.0 0.00 0.02 0.00 92 1003.4
20201029025542 46 1 10.0 16.0 0.00 0.02 0.00 92 1003.5
20201029025342 46 1 10.0 16.0 0.00 0.02 0.00 92 1003.4
20201029025142 46 1 10.0 15.0 0.00 0.02 0.00 92 1003.4
20201029024941 46 1 11.0 14.0 0.00 0.02 0.00 92 1003.5
20201029024743 46 1 11.0 14.0 0.00 0.02 0.00 92 1003.5
20201029024543 46 1 11.0 14.0 0.00 0.02 0.00 92 1003.5
20201029024343 46 1 11.0 16.0 0.00 0.02 0.00 92 1003.4
20201029024144 46 1 11.0 16.0 0.00 0.02 0.00 92 1003.5
20201029023942 46 1 11.0 16.0 0.00 0.02 0.00 92 1003.5
20201029023750 46 1 10.0 16.0 0.00 0.02 0.00 92 1003.5
20201029023544 46 1 10.0 16.0 0.00 0.02 0.00 92 1003.5
20201029023346 46 1 10.0 16.0 0.00 0.02 0.00 91 1003.5
20201029023142 46 1 10.0 16.0 0.00 0.02 0.00 91 1003.5
20201029022942 46 1 10.0 17.0 0.00 0.02 0.00 91 1003.6
20201029022745 46 1 9.0 17.0 0.00 0.02 0.00 91 1003.6
20201029022542 46 1 9.0 17.0 0.00 0.02 0.00 91 1003.7
20201029022342 46 1 9.0 17.0 0.00 0.02 0.00 91 1003.6
20201029022146 46 1 8.0 17.0 0.00 0.02 0.00 91 1003.7
20201029021943 45 1 8.0 15.0 0.00 0.02 0.00 91 1003.7
20201029021743 45 1 8.0 13.0 0.00 0.02 0.00 91 1003.7
20201029021542 45 1 8.0 13.0 0.00 0.02 0.00 91 1003.7
20201029021345 45 1 7.0 13.0 0.00 0.02 0.00 91 1003.7
20201029021142 45 1 7.0 13.0 0.00 0.02 0.00 90 1003.7
20201029020942 45 1 7.0 13.0 0.00 0.02 0.00 90 1003.7
20201029020747 45 1 6.0 13.0 0.00 0.02 0.00 90 1003.9
20201029020542 45 1 6.0 13.0 0.00 0.02 0.00 90 1003.9
20201029020342 45 1 7.0 11.0 0.00 0.02 0.00 90 1004.0
20201029020148 45 1 7.0 12.0 0.00 0.02 0.00 90 1004.0
20201029015945 45 1 7.0 12.0 0.00 0.02 0.00 90 1004.1
20201029015742 46 1 8.0 12.0 0.00 0.02 0.00 89 1004.1
20201029015548 46 1 8.0 12.0 0.00 0.02 0.00 89 1004.2
20201029015342 46 1 8.0 12.0 0.00 0.02 0.00 89 1004.2
20201029015143 46 1 8.0 11.0 0.00 0.02 0.00 89 1004.2
20201029014943 46 1 8.0 11.0 0.00 0.02 0.00 89 1004.2
20201029014744 46 1 8.0 11.0 0.00 0.02 0.00 89 1004.2
20201029014552 46 1 8.0 12.0 0.00 0.02 0.00 89 1004.3
20201029014343 46 1 8.0 14.0 0.00 0.02 0.00 89 1004.3
20201029014142 46 1 8.0 14.0 0.00 0.02 0.00 89 1004.3
20201029013943 46 1 8.0 14.0 0.00 0.02 0.00 89 1004.4
20201029013746 46 1 7.0 14.0 0.00 0.02 0.00 89 1004.2
20201029013547 46 1 7.0 14.0 0.00 0.02 0.00 89 1004.4
20201029013349 46 1 7.0 12.0 0.00 0.02 0.00 89 1004.4
20201029013145 46 1 6.0 12.0 0.00 0.02 0.00 89 1004.4
20201029012945 45 1 6.0 12.0 0.00 0.02 0.00 89 1004.5
20201029012744 45 1 6.0 12.0 0.00 0.02 0.00 89 1004.4
20201029012549 45 1 7.0 11.0 0.00 0.02 0.00 88 1004.4
20201029012343 45 1 7.0 11.0 0.00 0.02 0.00 88 1004.3
20201029012146 45 1 8.0 11.0 0.00 0.02 0.00 88 1004.4
20201029011946 45 1 9.0 11.0 0.00 0.02 0.00 88 1004.3
20201029011747 45 1 10.0 13.0 0.00 0.02 0.00 88 1004.4
20201029011601 45 1 10.0 15.0 0.00 0.02 0.00 87 1004.3
20201029011344 45 1 10.0 16.0 0.00 0.02 0.00 87 1004.4
20201029011143 45 1 10.0 16.0 0.00 0.02 0.00 87 1004.4
20201029010943 46 1 9.0 16.0 0.00 0.02 0.00 86 1004.3
20201029010748 46 1 8.0 16.0 0.00 0.02 0.00 86 1004.4
20201029010543 46 1 8.0 16.0 0.00 0.02 0.00 85 1004.4
20201029010344 46 1 7.0 14.0 0.00 0.02 0.00 84 1004.3
20201029005946 47 1 7.0 14.0 0.00 0.02 0.00 85 1004.2
20201029005752 47 1 7.0 14.0 0.00 0.02 0.00 85 1004.3
20201029005550 47 1 7.0 14.0 0.00 0.02 0.00 85 1004.3
20201029005344 47 1 7.0 14.0 0.00 0.02 0.00 85 1004.3
20201029005143 47 1 7.0 14.0 0.00 0.02 0.00 85 1004.4
20201029004949 47 1 7.0 11.0 0.00 0.02 0.00 85 1004.2
20201029004748 47 1 7.0 12.0 0.00 0.02 0.00 85 1004.3
20201029004551 47 1 8.0 12.0 0.00 0.02 0.00 84 1004.4
20201029004352 47 1 8.0 12.0 0.00 0.02 0.00 84 1004.4
20201029004149 47 1 8.0 12.0 0.00 0.02 0.00 84 1004.4
20201029003944 47 1 8.0 12.0 0.00 0.02 0.00 84 1004.4
20201029003756 47 1 8.0 14.0 0.00 0.02 0.00 84 1004.3
20201029003544 47 1 9.0 14.0 0.00 0.02 0.00 84 1004.3
20201029003344 47 1 9.0 14.0 0.00 0.02 0.00 84 1004.3
20201029003217 47 1 9.0 14.0 0.00 0.02 0.00 84 1004.4
20201029002949 47 1 8.0 15.0 0.00 0.02 0.00 84 1004.3
20201029002807 47 1 8.0 15.0 0.00 0.02 0.00 84 1004.4
20201029002544 47 1 8.0 15.0 0.00 0.02 0.00 84 1004.5
20201029002350 47 1 8.0 15.0 0.00 0.02 0.00 84 1004.5
20201029002156 47 1 7.0 16.0 0.00 0.02 0.00 84 1004.4
20201029001946 47 1 7.0 16.0 0.00 0.02 0.00 84 1004.4
20201029001744 47 1 7.0 16.0 0.00 0.02 0.00 84 1004.3
20201029001556 47 1 7.0 16.0 0.00 0.02 0.00 84 1004.4
20201029001347 47 1 7.0 16.0 0.00 0.02 0.00 85 1004.4
20201029001150 47 1 7.0 16.0 0.00 0.02 0.00 85 1004.3
20201029000952 47 1 7.0 14.0 0.00 0.02 0.00 85 1004.4
20201029000744 47 1 7.0 14.0 0.00 0.02 0.00 85 1004.4
20201029000552 47 1 7.0 14.0 0.00 0.02 0.00 85 1004.4
20201029000351 47 1 8.0 14.0 0.00 0.02 0.00 85 1004.3
20201029000200 47 1 7.0 14.0 0.00 0.02 0.00 85 1004.3
20201028235945 47 1 7.0 14.0 0.00 0.02 0.00 85 1004.3
20201028235746 46 1 7.0 13.0 0.00 0.02 0.02 85 1004.3
20201028235547 46 1 8.0 16.0 0.00 0.02 0.02 85 1004.3
20201028235348 46 1 7.0 16.0 0.00 0.02 0.02 85 1004.1
20201028235147 46 1 8.0 16.0 0.00 0.02 0.02 86 1004.2
20201028234954 46 1 8.0 16.0 0.00 0.02 0.02 85 1004.1
20201028234750 46 1 7.0 17.0 0.00 0.02 0.02 86 1004.1
20201028234600 46 1 7.0 17.0 0.00 0.02 0.02 86 1004.1
20201028234346 46 1 7.0 17.0 0.00 0.02 0.02 86 1004.1
20201028234146 46 1 6.0 17.0 0.00 0.02 0.02 86 1004.1
20201028233946 46 1 6.0 17.0 0.00 0.02 0.02 87 1004.1
20201028233754 46 1 6.0 15.0 0.00 0.02 0.02 86 1004.0
20201028233545 46 1 6.0 15.0 0.00 0.02 0.02 86 1004.0
20201028233345 46 1 6.0 15.0 0.00 0.02 0.02 86 1004.0
20201028233147 46 1 6.0 12.0 0.00 0.02 0.02 86 1004.0
20201028232958 46 1 6.0 12.0 0.00 0.02 0.02 86 1004.0
20201028232745 46 1 6.0 11.0 0.00 0.02 0.02 86 1004.1
20201028232543 46 1 6.0 11.0 0.00 0.02 0.02 86 1004.1
20201028232343 46 1 6.0 11.0 0.00 0.02 0.02 86 1004.1
20201028232144 46 1 6.0 11.0 0.00 0.02 0.02 85 1004.0
20201028231944 46 1 7.0 11.0 0.00 0.02 0.02 85 1004.0
20201028231755 46 1 7.0 14.0 0.00 0.02 0.02 85 1004.0
20201028231557 46 1 7.0 14.0 0.00 0.02 0.02 85 1004.0
20201028231345 46 1 7.0 14.0 0.00 0.02 0.02 85 1003.9
20201028231145 46 1 7.0 14.0 0.00 0.02 0.02 85 1004.0
20201028230945 46 1 7.0 14.0 0.00 0.02 0.02 85 1003.8
20201028230748 46 1 7.0 14.0 0.00 0.02 0.02 86 1003.8
20201028230548 45 1 7.0 14.0 0.00 0.02 0.02 86 1003.8
20201028230346 45 1 7.0 14.0 0.00 0.02 0.02 86 1003.7
20201028230147 45 1 7.0 14.0 0.00 0.02 0.02 86 1003.6
20201028225950 45 1 6.0 14.0 0.00 0.02 0.02 86 1003.5
20201028225748 45 1 6.0 14.0 0.00 0.02 0.02 86 1003.5
20201028225547 45 1 6.0 14.0 0.00 0.02 0.02 86 1003.5
20201028225345 45 1 6.0 13.0 0.00 0.02 0.02 86 1003.5
20201028225146 45 1 6.0 13.0 0.00 0.02 0.02 86 1003.6
20201028224945 45 1 6.0 13.0 0.00 0.02 0.02 87 1003.6
20201028224756 45 1 6.0 12.0 0.00 0.02 0.02 87 1003.7
20201028224545 45 1 6.0 11.0 0.00 0.02 0.02 87 1003.8
20201028224347 45 1 6.0 11.0 0.00 0.02 0.02 87 1003.7
20201028224147 45 1 6.0 11.0 0.00 0.02 0.02 87 1003.7
20201028223945 44 1 6.0 9.0 0.00 0.02 0.02 87 1003.8
20201028223745 44 1 6.0 10.0 0.00 0.02 0.02 86 1003.8
20201028223551 44 1 6.0 10.0 0.00 0.02 0.02 86 1003.8
20201028223344 44 1 6.0 13.0 0.00 0.02 0.02 86 1003.8
20201028223144 44 1 6.0 13.0 0.00 0.02 0.02 86 1003.8
20201028222946 44 1 6.0 13.0 0.00 0.02 0.02 86 1003.7
20201028222757 44 1 6.0 13.0 0.00 0.02 0.02 86 1003.8
20201028222547 44 1 6.0 13.0 0.00 0.02 0.02 86 1003.8
20201028222346 44 1 6.0 13.0 0.00 0.02 0.02 87 1003.8
20201028222145 44 1 6.0 13.0 0.00 0.02 0.02 87 1003.7
20201028221947 44 1 6.0 11.0 0.00 0.02 0.02 87 1003.7
20201028221746 44 1 6.0 11.0 0.00 0.02 0.02 87 1003.6
20201028221550 44 1 6.0 13.0 0.00 0.02 0.02 87 1003.6
20201028221355 44 1 7.0 13.0 0.00 0.02 0.02 87 1003.6
20201028221146 44 1 7.0 13.0 0.00 0.02 0.02 87 1003.8
20201028220947 44 1 7.0 13.0 0.00 0.02 0.02 87 1003.7
20201028220745 44 1 7.0 13.0 0.00 0.02 0.02 87 1003.5
20201028220546 44 1 7.0 11.0 0.00 0.02 0.02 87 1003.5
20201028220353 44 1 7.0 12.0 0.00 0.02 0.02 87 1003.5
20201028220145 44 1 7.0 12.0 0.00 0.02 0.02 87 1003.4
20201028215953 44 1 7.0 12.0 0.00 0.02 0.02 87 1003.4
20201028215748 44 1 7.0 12.0 0.00 0.02 0.02 87 1003.4
20201028215552 44 1 7.0 12.0 0.00 0.02 0.02 87 1003.2
20201028215350 44 1 7.0 11.0 0.00 0.02 0.02 87 1003.2
20201028215148 44 1 7.0 13.0 0.00 0.02 0.02 86 1003.1
20201028214945 44 1 7.0 13.0 0.00 0.02 0.02 86 1003.1
20201028214757 44 1 7.0 13.0 0.00 0.02 0.02 86 1003.0
20201028214546 44 1 6.0 13.0 0.00 0.02 0.02 86 1003.0
20201028214354 44 1 6.0 14.0 0.00 0.02 0.02 86 1003.0
20201028214149 44 1 6.0 14.0 0.00 0.02 0.02 86 1003.1
20201028213951 44 1 6.0 14.0 0.00 0.02 0.02 86 1003.1
20201028213747 44 1 6.0 14.0 0.00 0.02 0.02 86 1003.2
20201028213545 44 1 6.0 14.0 0.00 0.02 0.02 86 1003.1
20201028213350 44 1 6.0 13.0 0.00 0.02 0.02 86 1003.1
20201028213144 44 1 6.0 13.0 0.00 0.02 0.02 86 1003.1
20201028212945 44 1 6.0 13.0 0.00 0.02 0.02 86 1003.1
20201028212808 44 1 6.0 13.0 0.00 0.02 0.02 86 1003.1
20201028212545 44 1 6.0 12.0 0.00 0.02 0.02 86 1003.2
20201028212345 44 1 6.0 12.0 0.00 0.02 0.02 85 1003.1
20201028212150 44 1 6.0 12.0 0.00 0.02 0.02 85 1003.1
20201028211947 44 1 6.0 12.0 0.00 0.02 0.02 85 1003.0
20201028211745 44 1 6.0 12.0 0.00 0.02 0.02 85 1003.0
20201028211550 44 1 6.0 12.0 0.00 0.02 0.02 84 1003.0
20201028211345 44 1 6.0 12.0 0.00 0.02 0.02 84 1002.9
20201028211146 44 1 6.0 12.0 0.00 0.02 0.02 84 1002.9
20201028210947 44 1 7.0 12.0 0.00 0.02 0.02 84 1002.9
20201028210744 44 1 7.0 13.0 0.00 0.02 0.02 84 1002.8
20201028210546 44 1 7.0 13.0 0.00 0.02 0.02 83 1002.6
20201028210345 44 1 8.0 13.0 0.00 0.02 0.02 83 1002.7
20201028210145 45 1 8.0 13.0 0.00 0.02 0.02 83 1002.4
20201028205949 45 1 8.0 13.0 0.00 0.02 0.02 83 1002.5
20201028205746 45 1 8.0 14.0 0.00 0.02 0.02 83 1002.5
20201028205345 44 1 8.0 14.0 0.00 0.02 0.02 84 1002.3
20201028205151 44 1 8.0 14.0 0.00 0.02 0.02 84 1002.3
20201028204945 44 1 8.0 15.0 0.00 0.02 0.02 83 1002.2
20201028204749 44 1 7.0 15.0 0.00 0.02 0.02 83 1002.1
20201028204554 44 1 7.0 15.0 0.00 0.02 0.02 83 1002.0
20201028204345 44 1 7.0 15.0 0.00 0.02 0.02 83 1002.0
20201028204151 44 1 7.0 15.0 0.00 0.02 0.02 83 1001.9
20201028203947 44 1 7.0 15.0 0.00 0.02 0.02 83 1001.9
20201028203809 44 1 7.0 15.0 0.00 0.02 0.02 83 1002.0
20201028203346 44 1 7.0 14.0 0.00 0.02 0.02 83 1001.7
20201028203145 44 1 7.0 14.0 0.00 0.02 0.02 83 1001.8
20201028203001 44 1 7.0 14.0 0.00 0.02 0.02 83 1001.7
20201028202745 44 1 7.0 14.0 0.00 0.02 0.02 83 1001.6
20201028202548 44 1 7.0 14.0 0.00 0.02 0.02 83 1001.6
20201028202350 45 1 7.0 14.0 0.00 0.02 0.02 83 1001.6
20201028202145 45 1 7.0 15.0 0.00 0.02 0.02 83 1001.7
20201028201951 45 1 7.0 15.0 0.00 0.02 0.02 83 1001.7
20201028201351 44 1 6.0 16.0 0.00 0.02 0.02 84 1001.6
20201028201146 44 1 7.0 16.0 0.00 0.02 0.02 84 1001.6
20201028200947 44 1 7.0 16.0 0.00 0.02 0.02 84 1001.7
20201028200750 44 1 7.0 14.0 0.00 0.02 0.02 84 1001.8
20201028200548 44 1 7.0 14.0 0.00 0.02 0.02 84 1001.8
20201028200354 44 1 7.0 14.0 0.00 0.02 0.02 84 1001.7
20201028200147 44 1 6.0 14.0 0.00 0.02 0.02 85 1001.7
20201028195947 44 1 6.0 14.0 0.00 0.02 0.02 85 1001.6
20201028195746 44 1 6.0 14.0 0.00 0.02 0.02 85 1001.7
20201028195549 44 1 6.0 14.0 0.00 0.02 0.02 85 1001.7
20201028195359 44 1 6.0 14.0 0.00 0.02 0.02 85 1001.8
20201028195149 44 1 7.0 14.0 0.00 0.02 0.02 85 1001.8
20201028194948 44 1 6.0 13.0 0.00 0.02 0.02 85 1001.6
20201028194751 44 1 6.0 13.0 0.00 0.02 0.02 84 1001.5
20201028194549 44 1 6.0 13.0 0.00 0.02 0.02 84 1001.6
20201028194349 44 1 6.0 13.0 0.00 0.02 0.02 84 1001.6
20201028194149 44 1 6.0 13.0 0.00 0.02 0.02 84 1001.6
20201028193946 44 1 6.0 12.0 0.00 0.02 0.02 84 1001.5
20201028193751 44 1 6.0 12.0 0.00 0.02 0.02 84 1001.3
20201028193547 44 1 7.0 12.0 0.00 0.02 0.02 84 1001.4
20201028193347 44 1 7.0 12.0 0.00 0.02 0.02 84 1001.3
20201028193146 44 1 7.0 11.0 0.00 0.02 0.02 84 1001.3
20201028192947 44 1 7.0 13.0 0.00 0.02 0.02 83 1001.3
20201028192754 44 1 7.0 13.0 0.00 0.02 0.02 83 1001.3
20201028192548 44 1 8.0 13.0 0.00 0.02 0.02 83 1001.3
20201028192347 44 1 8.0 13.0 0.00 0.02 0.02 83 1001.2
20201028192148 44 1 8.0 13.0 0.00 0.02 0.02 83 1001.3
20201028191947 44 1 8.0 13.0 0.00 0.02 0.02 83 1001.2
20201028191749 44 1 8.0 13.0 0.00 0.02 0.02 83 1001.1
20201028191547 45 1 8.0 14.0 0.00 0.02 0.02 83 1001.2
20201028191350 45 1 8.0 16.0 0.00 0.02 0.02 83 1001.1
20201028191147 45 1 8.0 16.0 0.00 0.02 0.02 83 1001.1
20201028190948 45 1 7.0 16.0 0.00 0.02 0.02 83 1001.1
20201028190745 45 1 7.0 16.0 0.00 0.02 0.02 84 1001.0
20201028190550 45 1 7.0 16.0 0.00 0.02 0.02 84 1001.0
20201028190346 45 1 7.0 13.0 0.00 0.02 0.02 84 1001.0
20201028190147 45 1 7.0 13.0 0.00 0.02 0.02 85 1000.9
20201028185954 44 1 7.0 13.0 0.00 0.02 0.02 85 1000.8
20201028185749 44 1 8.0 13.0 0.00 0.02 0.02 85 1000.9
20201028185358 45 1 8.0 13.0 0.00 0.02 0.02 85 1000.8
20201028184949 45 1 8.0 15.0 0.00 0.02 0.02 85 1000.6
20201028184749 45 1 8.0 16.0 0.00 0.02 0.02 85 1000.5
20201028184546 45 1 8.0 16.0 0.00 0.02 0.02 84 1000.5
20201028184347 45 1 8.0 19.0 0.00 0.02 0.02 84 1000.5
20201028184148 45 1 8.0 19.0 0.00 0.02 0.02 84 1000.4
20201028183946 45 1 8.0 19.0 0.01 0.02 0.02 84 1000.3
20201028183746 45 1 8.0 19.0 0.01 0.02 0.02 85 1000.2
20201028183546 45 1 8.0 19.0 0.01 0.02 0.02 85 1000.3
20201028183357 45 1 7.0 16.0 0.01 0.02 0.02 85 1000.2
20201028183151 45 1 7.0 16.0 0.01 0.02 0.02 85 1000.1
20201028182949 44 1 7.0 16.0 0.02 0.02 0.02 86 1000.1
20201028182349 44 1 6.0 16.0 0.02 0.02 0.02 86 1000.0
20201028182146 44 1 6.0 16.0 0.02 0.02 0.02 86 1000.0
20201028181947 44 1 5.0 16.0 0.02 0.02 0.02 87 999.9
20201028181747 44 1 5.0 16.0 0.02 0.02 0.02 87 999.8
20201028181550 44 1 5.0 16.0 0.02 0.02 0.02 87 999.8
20201028181346 44 1 5.0 9.0 0.02 0.02 0.02 87 999.6
20201028181147 44 1 6.0 9.0 0.02 0.02 0.02 86 999.6
20201028180946 44 1 6.0 9.0 0.02 0.02 0.02 86 999.6
20201028180746 44 1 6.0 9.0 0.02 0.02 0.02 86 999.7
20201028180548 44 1 6.0 9.0 0.02 0.02 0.02 86 999.6
20201028180347 44 1 7.0 13.0 0.02 0.02 0.02 86 999.6
20201028180148 44 1 7.0 13.0 0.02 0.02 0.02 85 999.6
20201028175946 44 1 8.0 13.0 0.02 0.02 0.02 85 999.6
20201028175747 45 1 8.0 13.0 0.02 0.02 0.02 85 999.5
20201028175555 45 1 9.0 18.0 0.02 0.02 0.02 84 999.5
20201028175356 45 1 8.0 19.0 0.02 0.02 0.02 84 999.3
20201028175146 45 1 8.0 19.0 0.02 0.02 0.02 84 999.3
20201028174953 45 1 7.0 19.0 0.02 0.02 0.02 83 999.3
20201028174746 45 1 7.0 19.0 0.02 0.02 0.02 83 999.3
20201028174547 45 1 7.0 19.0 0.02 0.02 0.02 83 999.3
20201028174356 45 1 7.0 19.0 0.02 0.02 0.02 83 999.3
20201028174149 46 1 7.0 13.0 0.02 0.02 0.02 83 999.4
20201028173946 46 1 7.0 15.0 0.01 0.02 0.02 82 999.3
20201028173747 46 1 7.0 15.0 0.01 0.02 0.02 82 999.2
20201028173548 46 1 7.0 15.0 0.01 0.02 0.02 81 999.3
20201028173348 46 1 6.0 15.0 0.01 0.02 0.02 81 999.1
20201028173148 46 1 6.0 15.0 0.00 0.01 0.01 81 999.0
20201028172948 46 1 6.0 14.0 0.00 0.01 0.01 81 999.0
20201028172759 46 1 6.0 14.0 0.00 0.01 0.01 81 999.0
20201028172559 46 1 6.0 14.0 0.00 0.01 0.01 81 999.0
20201028172349 46 1 6.0 14.0 0.00 0.01 0.01 81 998.8
20201028172147 46 1 6.0 14.0 0.00 0.01 0.01 81 998.8
20201028171947 46 1 6.0 11.0 0.00 0.01 0.01 81 998.7
20201028171746 46 1 6.0 13.0 0.00 0.01 0.01 81 998.7
20201028171608 46 1 6.0 13.0 0.00 0.01 0.01 81 998.6
20201028171347 46 1 7.0 13.0 0.00 0.01 0.01 81 998.7
20201028171146 46 1 7.0 13.0 0.00 0.01 0.01 81 998.7
20201028170949 46 1 7.0 13.0 0.00 0.01 0.01 80 998.6
20201028170746 46 1 7.0 13.0 0.00 0.01 0.01 80 998.6
20201028170552 46 1 7.0 17.0 0.00 0.01 0.01 80 998.6
20201028170347 46 1 7.0 17.0 0.00 0.01 0.01 80 998.6
20201028170150 46 1 7.0 17.0 0.00 0.01 0.01 80 998.3
20201028165952 46 1 7.0 17.0 0.00 0.01 0.01 80 998.3
20201028165754 46 1 7.0 17.0 0.00 0.01 0.01 80 998.3
20201028165549 46 1 7.0 17.0 0.00 0.01 0.01 80 998.2
20201028165351 46 1 7.0 17.0 0.00 0.01 0.01 80 998.2
20201028165151 46 1 7.0 17.0 0.00 0.01 0.01 80 998.2
20201028164947 46 1 7.0 17.0 0.00 0.01 0.01 80 998.2
20201028164749 46 1 7.0 16.0 0.00 0.01 0.01 79 998.1
20201028164555 46 1 8.0 16.0 0.00 0.01 0.01 79 998.0
20201028164359 46 1 8.0 15.0 0.00 0.01 0.01 78 998.0
20201028164147 46 1 9.0 15.0 0.00 0.01 0.01 78 998.0
20201028163957 46 1 9.0 15.0 0.00 0.01 0.01 78 997.9
20201028163747 46 1 9.0 15.0 0.00 0.01 0.01 77 997.9
20201028163555 46 1 9.0 15.0 0.00 0.01 0.01 77 997.8
20201028163347 46 1 9.0 15.0 0.00 0.01 0.01 76 997.9
20201028163214 46 1 9.0 17.0 0.00 0.01 0.01 76 997.8
20201028162957 46 1 9.0 19.0 0.00 0.01 0.01 76 997.8
20201028162747 46 1 9.0 19.0 0.00 0.01 0.01 76 997.8
20201028162547 46 1 9.0 19.0 0.00 0.01 0.01 76 997.7
20201028162353 47 1 10.0 19.0 0.00 0.01 0.01 76 997.8
20201028162150 47 1 10.0 19.0 0.00 0.01 0.01 76 997.7
20201028161948 47 1 10.0 18.0 0.00 0.01 0.01 75 997.6
20201028161747 47 1 10.0 19.0 0.00 0.01 0.01 75 997.6
20201028161548 47 1 10.0 19.0 0.00 0.01 0.01 75 997.7
20201028161347 47 1 10.0 19.0 0.00 0.01 0.01 75 997.5
20201028161202 48 1 9.0 19.0 0.00 0.01 0.01 75 997.5
20201028160950 48 1 9.0 20.0 0.00 0.01 0.01 75 997.4
20201028160755 48 1 8.0 20.0 0.00 0.01 0.01 75 997.5
20201028160550 48 1 8.0 20.0 0.00 0.01 0.01 74 997.5
20201028160347 48 1 7.0 20.0 0.00 0.01 0.01 74 997.5
20201028160149 48 1 7.0 20.0 0.00 0.01 0.01 73 997.5
20201028155948 48 1 7.0 19.0 0.00 0.01 0.01 74 997.5
20201028155748 48 359 8.0 15.0 0.00 0.01 0.01 74 997.4
20201028155548 48 348 9.0 15.0 0.00 0.01 0.01 74 997.4
20201028155353 48 334 9.0 15.0 0.00 0.01 0.01 75 997.4
20201028155149 48 315 10.0 15.0 0.00 0.01 0.01 75 997.3
20201028154948 48 303 11.0 15.0 0.00 0.01 0.01 75 997.4
20201028154758 49 311 12.0 19.0 0.00 0.01 0.01 75 997.3
20201028154549 49 324 12.0 21.0 0.00 0.01 0.01 74 997.2
20201028154352 49 337 12.0 21.0 0.00 0.01 0.01 73 997.3
20201028154149 49 349 12.0 21.0 0.00 0.01 0.01 72 997.2
20201028153948 50 359 11.0 21.0 0.00 0.01 0.01 71 997.2
20201028153748 50 1 10.0 21.0 0.00 0.01 0.01 71 997.1
20201028153548 50 1 9.0 20.0 0.00 0.01 0.01 70 997.1
20201028153348 50 1 8.0 20.0 0.00 0.01 0.01 71 997.0
20201028153213 50 1 8.0 19.0 0.00 0.01 0.01 71 997.0
20201028152948 50 359 7.0 19.0 0.00 0.01 0.01 71 997.0
20201028152750 50 359 7.0 19.0 0.00 0.01 0.01 71 996.9
20201028152548 50 359 7.0 19.0 0.00 0.01 0.01 71 996.8
20201028152349 50 345 8.0 14.0 0.00 0.01 0.01 72 996.8
20201028152148 50 323 8.0 15.0 0.00 0.01 0.01 73 996.6
20201028151947 50 303 8.0 15.0 0.00 0.01 0.01 73 996.8
20201028151747 49 283 8.0 15.0 0.00 0.01 0.01 73 996.8
20201028151547 49 270 8.0 15.0 0.00 0.01 0.01 73 996.8
20201028151349 49 267 8.0 18.0 0.00 0.01 0.01 74 996.7
20201028151153 49 263 8.0 18.0 0.00 0.01 0.01 75 996.8
20201028150947 49 262 8.0 18.0 0.00 0.01 0.01 75 996.9
20201028150748 49 261 9.0 18.0 0.00 0.01 0.01 75 996.7
20201028150553 49 262 9.0 18.0 0.00 0.01 0.01 74 996.7
20201028150347 49 263 10.0 19.0 0.00 0.01 0.01 74 996.7
20201028150155 49 265 10.0 21.0 0.00 0.01 0.01 74 996.6
20201028145958 49 269 10.0 21.0 0.00 0.01 0.01 74 996.6
20201028145751 49 285 10.0 21.0 0.00 0.01 0.01 74 996.5
20201028145548 49 287 10.0 21.0 0.00 0.01 0.01 74 996.5
20201028145347 49 289 10.0 21.0 0.00 0.01 0.01 74 996.6
20201028145151 49 296 10.0 20.0 0.00 0.01 0.01 75 996.6
20201028144949 49 288 10.0 20.0 0.00 0.01 0.01 74 996.6
20201028144753 49 270 10.0 19.0 0.00 0.01 0.01 74 996.5
20201028144615 49 269 10.0 19.0 0.00 0.01 0.01 75 996.5
20201028144348 49 268 10.0 19.0 0.00 0.01 0.01 75 996.4
20201028144153 49 270 9.0 19.0 0.00 0.01 0.01 75 996.4
20201028143958 49 270 9.0 19.0 0.00 0.01 0.01 75 996.3
20201028143751 49 272 9.0 18.0 0.00 0.01 0.01 75 996.3
20201028143548 49 285 8.0 18.0 0.00 0.01 0.01 75 996.3
20201028143347 49 306 8.0 18.0 0.00 0.01 0.01 75 996.3
20201028143149 49 319 8.0 23.0 0.00 0.01 0.01 76 996.2
20201028142951 48 322 8.0 23.0 0.00 0.01 0.01 77 996.1
20201028142756 48 319 8.0 23.0 0.00 0.01 0.01 76 996.3
20201028142551 48 320 7.0 23.0 0.00 0.01 0.01 76 996.2
20201028142349 48 318 7.0 23.0 0.00 0.01 0.01 76 996.3
20201028142149 48 324 7.0 18.0 0.00 0.01 0.01 77 996.2
20201028141959 48 345 8.0 18.0 0.00 0.01 0.01 78 996.2
20201028141755 48 359 9.0 18.0 0.00 0.01 0.01 78 996.2
20201028141555 47 359 10.0 18.0 0.00 0.01 0.01 79 996.3
20201028141348 47 1 11.0 18.0 0.00 0.01 0.01 79 996.4
20201028141149 47 1 11.0 21.0 0.00 0.01 0.01 79 996.4
20201028140948 47 1 12.0 22.0 0.00 0.01 0.01 79 996.4
20201028140750 47 1 12.0 22.0 0.00 0.01 0.01 78 996.3
20201028140549 47 1 12.0 25.0 0.00 0.01 0.01 78 996.4
20201028140350 47 1 11.0 25.0 0.00 0.01 0.01 78 996.2
20201028140148 47 1 11.0 25.0 0.00 0.01 0.01 79 996.3
20201028135949 47 1 10.0 25.0 0.00 0.01 0.01 78 996.3
20201028135747 47 1 10.0 25.0 0.00 0.01 0.01 78 996.0
20201028135551 47 1 9.0 23.0 0.00 0.01 0.01 79 996.1
20201028135348 47 1 9.0 18.0 0.00 0.01 0.01 79 996.1
20201028135149 47 1 10.0 18.0 0.00 0.01 0.01 79 996.2
20201028134952 47 1 11.0 17.0 0.00 0.01 0.01 79 996.1
20201028134749 47 1 12.0 17.0 0.00 0.01 0.01 78 996.1
20201028134553 47 1 13.0 17.0 0.00 0.01 0.01 78 996.0
20201028134348 47 1 13.0 20.0 0.00 0.01 0.01 78 995.7
20201028134151 47 359 13.0 23.0 0.00 0.01 0.01 78 995.8
20201028133949 47 357 12.0 28.0 0.00 0.01 0.01 78 995.8
20201028133749 48 346 11.0 28.0 0.00 0.01 0.01 78 995.8
20201028133549 48 336 10.0 28.0 0.00 0.01 0.01 77 995.9
20201028133351 48 332 10.0 28.0 0.00 0.01 0.01 76 996.0
20201028133156 49 321 10.0 28.0 0.00 0.01 0.01 75 996.0
20201028132951 49 299 10.0 18.0 0.00 0.01 0.01 74 995.9
20201028132748 49 301 10.0 21.0 0.00 0.01 0.01 72 995.8
20201028132549 49 298 10.0 22.0 0.00 0.01 0.01 72 995.7
20201028132349 49 285 10.0 22.0 0.00 0.01 0.01 71 995.8
20201028132150 50 274 10.0 22.0 0.00 0.01 0.01 70 995.7
20201028131949 50 279 9.0 22.0 0.00 0.01 0.01 69 995.8
20201028131749 51 272 9.0 22.0 0.00 0.01 0.01 69 995.7
20201028131553 51 269 9.0 24.0 0.00 0.01 0.01 71 995.8
20201028131353 51 265 8.0 24.0 0.00 0.01 0.01 70 995.7
20201028131206 51 267 8.0 24.0 0.00 0.01 0.01 69 995.7
20201028130954 51 266 7.0 24.0 0.00 0.01 0.01 69 995.6
20201028130754 51 276 7.0 24.0 0.00 0.01 0.01 69 995.8
20201028130555 51 283 7.0 21.0 0.01 0.01 0.01 69 995.7
20201028130401 51 288 7.0 17.0 0.01 0.01 0.01 71 995.8
20201028130149 51 292 8.0 10.0 0.01 0.01 0.01 71 995.8
20201028125950 51 278 8.0 15.0 0.01 0.01 0.01 71 995.7
20201028125754 50 270 8.0 15.0 0.01 0.01 0.01 72 995.6
20201028125611 50 268 9.0 19.0 0.01 0.01 0.01 72 995.7
20201028125351 50 275 9.0 21.0 0.01 0.01 0.01 73 995.7
20201028125153 50 277 9.0 21.0 0.01 0.01 0.01 73 995.7
20201028124957 50 277 9.0 21.0 0.01 0.01 0.01 73 995.6
20201028124748 49 278 10.0 21.0 0.01 0.01 0.01 72 995.7
20201028124558 49 283 10.0 23.0 0.01 0.01 0.01 74 995.7
20201028124351 49 285 11.0 23.0 0.01 0.01 0.01 75 995.7
20201028124149 49 300 11.0 23.0 0.01 0.01 0.01 75 995.7
20201028123951 49 317 11.0 23.0 0.01 0.01 0.01 75 995.6
20201028123755 49 337 11.0 23.0 0.01 0.01 0.01 76 995.6
20201028123553 49 342 12.0 18.0 0.01 0.01 0.01 77 995.8
20201028123350 49 339 12.0 18.0 0.01 0.01 0.01 77 995.8
20201028123151 49 340 12.0 23.0 0.01 0.01 0.01 77 995.6
20201028122958 49 338 13.0 23.0 0.01 0.01 0.01 77 995.5
20201028122748 48 338 13.0 23.0 0.01 0.01 0.01 78 995.5
20201028122551 48 347 13.0 23.0 0.01 0.01 0.01 78 995.6
20201028122351 48 356 12.0 23.0 0.01 0.01 0.01 78 995.5
20201028122152 48 357 12.0 21.0 0.01 0.01 0.01 78 995.4
20201028121950 48 1 12.0 28.0 0.01 0.01 0.01 79 995.4
20201028121754 47 357 11.0 28.0 0.01 0.01 0.01 79 995.4
20201028121549 47 350 11.0 28.0 0.01 0.01 0.01 78 995.4
20201028121349 47 347 11.0 28.0 0.01 0.01 0.01 77 995.4
20201028121155 48 325 10.0 28.0 0.01 0.01 0.01 77 995.5
20201028120950 48 307 10.0 21.0 0.01 0.01 0.01 76 995.5
20201028120750 48 290 10.0 21.0 0.01 0.01 0.01 76 995.4
20201028120550 49 278 10.0 21.0 0.00 0.00 0.00 75 995.5
20201028120352 49 261 10.0 21.0 0.00 0.00 0.00 74 995.4
20201028120154 49 254 10.0 23.0 0.00 0.00 0.00 75 995.4
20201028115959 49 250 9.0 23.0 0.00 0.00 0.00 75 995.3
20201028115752 49 250 8.0 23.0 0.00 0.00 0.00 76 995.3
20201028115601 49 249 8.0 23.0 0.00 0.00 0.00 77 995.3
20201028115349 48 248 7.0 23.0 0.00 0.00 0.00 78 995.1
20201028115152 48 250 7.0 16.0 0.00 0.00 0.00 79 995.1
20201028114952 48 253 8.0 16.0 0.00 0.00 0.00 79 995.0
20201028114753 47 253 9.0 16.0 0.00 0.00 0.00 80 995.0
20201028114552 47 267 9.0 14.0 0.00 0.00 0.00 81 995.1
20201028114349 47 299 9.0 17.0 0.00 0.01 0.00 81 995.1
20201028114149 47 325 10.0 17.0 0.00 0.01 0.00 81 995.1
20201028113951 47 343 9.0 17.0 0.00 0.02 0.00 81 995.1
20201028113748 47 356 9.0 17.0 0.00 0.02 0.00 81 994.9
20201028113552 47 1 9.0 17.0 0.00 0.02 0.00 82 995.0
20201028113352 47 1 9.0 16.0 0.00 0.02 0.00 82 995.0
20201028113155 47 1 9.0 16.0 0.00 0.02 0.00 83 995.2
20201028112950 47 1 9.0 15.0 0.00 0.02 0.00 82 995.2
20201028112750 47 358 10.0 15.0 0.00 0.02 0.00 82 995.2
20201028112550 47 343 11.0 18.0 0.00 0.02 0.00 82 995.0
20201028112349 47 317 11.0 18.0 0.00 0.02 0.00 82 995.0
20201028112153 47 281 12.0 23.0 0.00 0.02 0.00 81 995.0
20201028111950 47 272 13.0 23.0 0.00 0.02 0.00 81 995.1
20201028111750 47 257 13.0 23.0 0.00 0.02 0.00 79 995.0
20201028111549 47 257 13.0 23.0 0.00 0.02 0.00 79 994.9
20201028111354 47 256 13.0 23.0 0.00 0.02 0.00 78 994.8
20201028111149 47 255 12.0 22.0 0.00 0.02 0.00 78 994.8
20201028110952 48 247 11.0 21.0 0.00 0.02 0.00 78 994.9
20201028110750 48 248 11.0 21.0 0.00 0.02 0.00 78 995.0
20201028110549 48 247 10.0 21.0 0.00 0.02 0.00 77 995.0
20201028110349 48 243 10.0 20.0 0.00 0.02 0.00 77 995.0
20201028110208 48 243 9.0 18.0 0.00 0.02 0.00 77 994.9
20201028105954 48 244 9.0 17.0 0.00 0.02 0.00 77 994.7
20201028105752 48 241 9.0 17.0 0.00 0.02 0.00 76 994.8
20201028105550 48 237 9.0 17.0 0.00 0.02 0.00 76 994.7
20201028105349 48 241 9.0 15.0 0.00 0.02 0.00 76 994.7
20201028105155 48 238 10.0 18.0 0.00 0.02 0.00 76 994.7
20201028104952 48 238 10.0 18.0 0.00 0.02 0.00 76 994.7
20201028104751 48 237 10.0 18.0 0.00 0.02 0.00 77 994.8
20201028104551 48 239 10.0 18.0 0.00 0.02 0.00 76 994.8
20201028104349 48 238 9.0 18.0 0.00 0.02 0.00 76 994.6
20201028104155 48 239 9.0 17.0 0.00 0.02 0.00 76 994.6
20201028103950 48 238 9.0 17.0 0.00 0.02 0.00 77 994.7
20201028103750 48 242 9.0 17.0 0.00 0.02 0.00 76 994.6
20201028103550 48 258 9.0 17.0 0.00 0.02 0.00 76 994.6
20201028103349 48 285 9.0 17.0 0.00 0.02 0.00 76 994.7
20201028103150 48 325 10.0 16.0 0.00 0.02 0.00 77 994.6